Regional Weather Roundup
Issued by NWS

Home | Current Version | Previous Version | Text Only | Print | Product List | Glossary On
Versions: 1 2 3 4 5 6 7 8 9 10 11 12 13 14 15 16 17 18 19 20 21 22 23 24 25 26 27 28 29 30 31 32 33 34 35 36 37 38 39 40 41 42 43 44 45 46 47 48 49 50
000
ASUS45 KABQ 100310
RWRNM
NEW MEXICO REGIONAL WEATHER ROUNDUP
NATIONAL WEATHER SERVICE ALBUQUERQUE NM
800 PM MST TUE FEB 09 2016

NOTE: "FAIR" MEANS FEW OR NO CLOUDS BELOW 12,000 FEET AGL WITH NO
       SIGNIFICANT WEATHER OR OBSTRUCTIONS TO VISION.

      THIS PRODUCT IS RELEASED AS TWO VERSIONS.  ONE VERSION NEAR
      THE TOP OF THE HOUR CONTAINING PRELIMINARY DATA FROM ALBUQUERQUE
      AND OTHER STATIONS.  A FINAL VERSION WITH ADDITIONAL DATA IS
      ISSUED ABOUT 10 MINUTES AFTER THE HOUR.

NMZ501-503-504-510>518-100400-
NORTHWEST PLATEAU/NORTHCENTRAL MOUNTAINS

CITY           SKY/WX    TMP DP  RH WIND       PRES   REMARKS
FARMINGTON     CLOUDY    32  23  69 E6        30.38R WCI  26
LOS ALAMOS     CLOUDY    46  13  27 W6        30.42R
SANTA FE       CLOUDY    35  19  52 NW3       30.38R
TAOS           CLOUDY    32  19  59 CALM      30.42S
ANGEL FIRE     FAIR      17  11  75 SW5       30.46R WCI  10

$$
NMZ402-403-502-505>509-100400-
WESTCENTRAL MOUNTAINS/SOUTHWEST MOUNTAINS

CITY           SKY/WX    TMP DP  RH WIND       PRES   REMARKS
GALLUP         CLEAR     33  21  61 CALM      30.41S
GRANTS         CLEAR     31  10  40 N3        30.44R
SILVER CITY      N/A     36  18  48 N5        30.36S WCI  32

$$
NMZ407-409-411-412-100400-
SOUTHERN DESERTS

CITY           SKY/WX    TMP DP  RH WIND       PRES   REMARKS
LORDSBURG      FAIR      45  18  33 SE8       30.30S
DEMING         CLEAR     48  18  30 CALM      30.31R
LAS CRUCES     CLEAR     40  15  35 S3        30.33R
HOLLOMAN AFB   CLEAR     46  17  30 E7        30.31R
ALAMOGORDO     CLEAR     46  18  31 E5        30.32S
T OR C         CLEAR     55  18  23 CALM      30.32R

$$
NMZ519>523-100400-
CENTRAL VALLEYS/CENTRAL HIGHLANDS

CITY           SKY/WX    TMP DP  RH WIND       PRES   REMARKS
ALBUQUERQUE    CLEAR     50  18  28 N8        30.37R
DOUBLE EAGLE   CLEAR     41  21  45 NW12      30.38R
MORIARTY ARPT  FAIR      31  18  56 N6        30.39R WCI  26
CLINES CORNERS CLOUDY    40  15  36 CALM      30.39R
BELEN          FAIR      38  12  35 CALM      30.36R
SOCORRO        FAIR      47  18  31 W5        30.34R

$$
NMZ524>526-539-540-100400-
SOUTHCENTRAL MOUNTAINS

CITY           SKY/WX    TMP DP  RH WIND       PRES   REMARKS
RUIDOSO          N/A     41  16  36 S6        30.42R

$$
NMZ527>531-100400-
NORTHEAST HIGHLANDS/NORTHEAST PLAINS

CITY           SKY/WX    TMP DP  RH WIND       PRES   REMARKS
LAS VEGAS      CLOUDY    37  17  44 W6        30.41R WCI  32
RATON          CLOUDY    31  16  54 MISG      30.39R
CLAYTON        CLEAR     38  19  46 W5        30.35R WCI  34

$$
NMZ532>537-100400-
EASTCENTRAL PLAINS

CITY           SKY/WX    TMP DP  RH WIND       PRES   REMARKS
TUCUMCARI      CLEAR     41  15  35 CALM      30.33R
CANNON AFB     CLOUDY    41  15  35 N5        30.34R
CLOVIS AIRPORT CLEAR     37  19  48 CALM      30.35S

$$
NMZ028-029-538-100400-
SOUTHEAST PLAINS

CITY           SKY/WX    TMP DP  RH WIND       PRES   REMARKS
ROSWELL        CLEAR     41  20  43 SW5       30.32R
ARTESIA        CLEAR     43  21  42 S8        30.33S
CARLSBAD       CLEAR     39  22  50 S8        30.32R WCI  33
HOBBS          CLEAR     46  18  31 S5        30.35R


$$




USA.gov is the U.S. government's official web portal to all federal, state and local government web resources and services.